Year,Month,Day,Hour,Minute,Value (Times are PST for temperature in C)
2008,06,29,00,00,19.10
2008,06,29,00,01,19.10
2008,06,29,00,02,19.10
2008,06,29,00,03,19.10
2008,06,29,00,04,19.20
2008,06,29,00,05,19.30
2008,06,29,00,06,19.30
2008,06,29,00,07,19.40
2008,06,29,00,08,19.50
2008,06,29,00,09,19.60
2008,06,29,00,10,19.60
2008,06,29,00,11,19.70
2008,06,29,00,12,19.70
2008,06,29,00,13,19.80
2008,06,29,00,14,19.90
2008,06,29,00,15,19.90
2008,06,29,00,16,20.00
2008,06,29,00,17,20.10
2008,06,29,00,18,20.20
2008,06,29,00,19,20.30
2008,06,29,00,20,20.40
2008,06,29,00,21,20.50
2008,06,29,00,22,20.60
2008,06,29,00,23,20.70
2008,06,29,00,24,20.70
2008,06,29,00,25,20.80
2008,06,29,00,26,20.80
2008,06,29,00,27,20.90
2008,06,29,00,28,20.90
2008,06,29,00,29,20.90
2008,06,29,00,30,20.80
2008,06,29,00,31,20.70
2008,06,29,00,32,20.60
2008,06,29,00,33,20.50
2008,06,29,00,34,20.40
2008,06,29,00,35,20.30
2008,06,29,00,36,20.20
2008,06,29,00,37,20.20
2008,06,29,00,38,20.10
2008,06,29,00,39,20.10
2008,06,29,00,40,20.00
2008,06,29,00,41,19.90
2008,06,29,00,42,19.90
2008,06,29,00,43,19.90
2008,06,29,00,44,19.90
2008,06,29,00,45,19.90
2008,06,29,00,46,19.90
2008,06,29,00,47,19.90
2008,06,29,00,48,19.80
2008,06,29,00,49,19.80
2008,06,29,00,50,19.80
2008,06,29,00,51,19.80
2008,06,29,00,52,19.80
2008,06,29,00,53,19.80
2008,06,29,00,54,19.70
2008,06,29,00,55,19.70
2008,06,29,00,56,19.70
2008,06,29,00,57,19.60
2008,06,29,00,58,19.60
2008,06,29,00,59,19.60
2008,06,29,01,00,19.50
2008,06,29,01,01,19.50
2008,06,29,01,02,19.50
2008,06,29,01,03,19.50
2008,06,29,01,04,19.50
2008,06,29,01,05,19.50
2008,06,29,01,06,19.50
2008,06,29,01,07,19.50
2008,06,29,01,08,19.50
2008,06,29,01,09,19.50
2008,06,29,01,10,19.50
2008,06,29,01,11,19.40
2008,06,29,01,12,19.40
2008,06,29,01,13,19.40
2008,06,29,01,14,19.40
2008,06,29,01,15,19.40
2008,06,29,01,16,19.40
2008,06,29,01,17,19.40
2008,06,29,01,18,19.40
2008,06,29,01,19,19.40
2008,06,29,01,20,19.40
2008,06,29,01,21,19.40
2008,06,29,01,22,19.50
2008,06,29,01,23,19.50
2008,06,29,01,24,19.50
2008,06,29,01,25,19.60
2008,06,29,01,26,19.60
2008,06,29,01,27,19.60
2008,06,29,01,28,19.70
2008,06,29,01,29,19.70
2008,06,29,01,30,19.70
2008,06,29,01,31,19.70
2008,06,29,01,32,19.80
2008,06,29,01,33,19.80
2008,06,29,01,34,19.80
2008,06,29,01,35,19.80
2008,06,29,01,36,19.80
2008,06,29,01,37,19.80
2008,06,29,01,38,19.80
2008,06,29,01,39,19.70
2008,06,29,01,40,19.70
2008,06,29,01,41,19.70
2008,06,29,01,42,19.70
2008,06,29,01,43,19.60
2008,06,29,01,44,19.60
2008,06,29,01,45,19.60
2008,06,29,01,46,19.60
2008,06,29,01,47,19.50
2008,06,29,01,48,19.50
2008,06,29,01,49,19.50
2008,06,29,01,50,19.40
2008,06,29,01,51,19.40
2008,06,29,01,52,19.40
2008,06,29,01,53,19.30
2008,06,29,01,54,19.30
2008,06,29,01,55,19.20
2008,06,29,01,56,19.10
2008,06,29,01,57,19.10
2008,06,29,01,58,19.10
2008,06,29,01,59,19.10
2008,06,29,02,00,19.00
2008,06,29,02,01,18.90
2008,06,29,02,02,18.90
2008,06,29,02,03,18.90
2008,06,29,02,04,18.90
2008,06,29,02,05,18.80
2008,06,29,02,06,18.70
2008,06,29,02,07,18.70
2008,06,29,02,08,18.60
2008,06,29,02,09,18.50
2008,06,29,02,10,18.50
2008,06,29,02,11,18.50
2008,06,29,02,12,18.40
2008,06,29,02,13,18.40
2008,06,29,02,14,18.30
2008,06,29,02,15,18.30
2008,06,29,02,16,18.20
2008,06,29,02,17,18.20
2008,06,29,02,18,18.20
2008,06,29,02,19,18.20
2008,06,29,02,20,18.20
2008,06,29,02,21,18.20
2008,06,29,02,22,18.20
2008,06,29,02,23,18.10
2008,06,29,02,24,18.10
2008,06,29,02,25,18.10
2008,06,29,02,26,18.10
2008,06,29,02,27,18.00
2008,06,29,02,28,17.90
2008,06,29,02,29,17.90
2008,06,29,02,30,17.90
2008,06,29,02,31,17.90
2008,06,29,02,32,17.90
2008,06,29,02,33,17.90
2008,06,29,02,34,17.90
2008,06,29,02,35,17.90
2008,06,29,02,36,17.90
2008,06,29,02,37,17.90
2008,06,29,02,38,17.80
2008,06,29,02,39,17.80
2008,06,29,02,40,17.70
2008,06,29,02,41,17.60
2008,06,29,02,42,17.60
2008,06,29,02,43,17.50
2008,06,29,02,44,17.50
2008,06,29,02,45,17.50
2008,06,29,02,46,17.40
2008,06,29,02,47,17.40
2008,06,29,02,48,17.30
2008,06,29,02,49,17.30
2008,06,29,02,50,17.30
2008,06,29,02,51,17.30
2008,06,29,02,52,17.30
2008,06,29,02,53,17.30
2008,06,29,02,54,17.30
2008,06,29,02,55,17.20
2008,06,29,02,56,17.20
2008,06,29,02,57,17.20
2008,06,29,02,58,17.20
2008,06,29,02,59,17.10
2008,06,29,03,00,17.10
2008,06,29,03,01,17.10
2008,06,29,03,02,17.10
2008,06,29,03,03,17.00
2008,06,29,03,04,17.00
2008,06,29,03,05,17.00
2008,06,29,03,06,16.90
2008,06,29,03,07,16.90
2008,06,29,03,08,16.90
2008,06,29,03,09,16.90
2008,06,29,03,10,16.80
2008,06,29,03,11,16.80
2008,06,29,03,12,16.80
2008,06,29,03,13,16.80
2008,06,29,03,14,16.80
2008,06,29,03,15,16.80
2008,06,29,03,16,16.80
2008,06,29,03,17,16.80
2008,06,29,03,18,16.80
2008,06,29,03,19,16.80
2008,06,29,03,20,16.80
2008,06,29,03,21,16.80
2008,06,29,03,22,16.80
2008,06,29,03,23,16.90
2008,06,29,03,24,16.90
2008,06,29,03,25,16.90
2008,06,29,03,26,17.00
2008,06,29,03,27,17.00
2008,06,29,03,28,17.10
2008,06,29,03,29,17.20
2008,06,29,03,30,17.20
2008,06,29,03,31,17.30
2008,06,29,03,32,17.30
2008,06,29,03,33,17.30
2008,06,29,03,34,17.30
2008,06,29,03,35,17.30
2008,06,29,03,36,17.30
2008,06,29,03,37,17.30
2008,06,29,03,38,17.30
2008,06,29,03,39,17.30
2008,06,29,03,40,17.30
2008,06,29,03,41,17.30
2008,06,29,03,42,17.30
2008,06,29,03,43,17.30
2008,06,29,03,44,17.30
2008,06,29,03,45,17.30
2008,06,29,03,46,17.20
2008,06,29,03,47,17.20
2008,06,29,03,48,17.20
2008,06,29,03,49,17.20
2008,06,29,03,50,17.20
2008,06,29,03,51,17.20
2008,06,29,03,52,17.10
2008,06,29,03,53,17.10
2008,06,29,03,54,17.10
2008,06,29,03,55,17.10
2008,06,29,03,56,17.10
2008,06,29,03,57,17.00
2008,06,29,03,58,17.00
2008,06,29,03,59,17.00
2008,06,29,04,00,16.90
2008,06,29,04,01,16.90
2008,06,29,04,02,16.90
2008,06,29,04,03,16.90
2008,06,29,04,04,16.90
2008,06,29,04,05,16.80
2008,06,29,04,06,16.80
2008,06,29,04,07,16.80
2008,06,29,04,08,16.80
2008,06,29,04,09,16.80
2008,06,29,04,10,16.80
2008,06,29,04,11,16.80
2008,06,29,04,12,16.70
2008,06,29,04,13,16.70
2008,06,29,04,14,16.70
2008,06,29,04,15,16.70
2008,06,29,04,16,16.70
2008,06,29,04,17,16.70
2008,06,29,04,18,16.70
2008,06,29,04,19,16.70
2008,06,29,04,20,16.70
2008,06,29,04,21,16.70
2008,06,29,04,22,16.70
2008,06,29,04,23,16.70
2008,06,29,04,24,16.60
2008,06,29,04,25,16.60
2008,06,29,04,26,16.60
2008,06,29,04,27,16.60
2008,06,29,04,28,16.50
2008,06,29,04,29,16.40
2008,06,29,04,30,16.40
2008,06,29,04,31,16.40
2008,06,29,04,32,16.40
2008,06,29,04,33,16.40
2008,06,29,04,34,16.40
2008,06,29,04,35,16.40
2008,06,29,04,36,16.30
2008,06,29,04,37,16.30
2008,06,29,04,38,16.30
2008,06,29,04,39,16.30
2008,06,29,04,40,16.30
2008,06,29,04,41,16.30
2008,06,29,04,42,16.30
2008,06,29,04,43,16.30
2008,06,29,04,44,16.30
2008,06,29,04,45,16.30
2008,06,29,04,46,16.30
2008,06,29,04,47,16.30
2008,06,29,04,48,16.20
2008,06,29,04,49,16.20
2008,06,29,04,50,16.10
2008,06,29,04,51,16.10
2008,06,29,04,52,16.10
2008,06,29,04,53,16.10
2008,06,29,04,54,16.10
2008,06,29,04,55,16.20
2008,06,29,04,56,16.30
2008,06,29,04,57,16.30
2008,06,29,04,58,16.40
2008,06,29,04,59,16.40
2008,06,29,05,00,16.50
2008,06,29,05,01,16.60
2008,06,29,05,02,16.60
2008,06,29,05,03,16.60
2008,06,29,05,04,16.60
2008,06,29,05,05,16.60
2008,06,29,05,06,16.60
2008,06,29,05,07,16.60
2008,06,29,05,08,16.60
2008,06,29,05,09,16.60
2008,06,29,05,10,16.60
2008,06,29,05,11,16.60
2008,06,29,05,12,16.60
2008,06,29,05,13,16.70
2008,06,29,05,14,16.70
2008,06,29,05,15,16.70
2008,06,29,05,16,16.70
2008,06,29,05,17,16.80
2008,06,29,05,18,16.80
2008,06,29,05,19,16.80
2008,06,29,05,20,16.90
2008,06,29,05,21,16.90
2008,06,29,05,22,16.90
2008,06,29,05,23,16.90
2008,06,29,05,24,16.90
2008,06,29,05,25,16.90
2008,06,29,05,26,16.90
2008,06,29,05,27,16.90
2008,06,29,05,28,16.90
2008,06,29,05,29,16.90
2008,06,29,05,30,16.90
2008,06,29,05,31,16.80
2008,06,29,05,32,16.80
2008,06,29,05,33,16.80
2008,06,29,05,34,16.80
2008,06,29,05,35,16.80
2008,06,29,05,36,16.70
2008,06,29,05,37,16.70
2008,06,29,05,38,16.70
2008,06,29,05,39,16.70
2008,06,29,05,40,16.70
2008,06,29,05,41,16.70
2008,06,29,05,42,16.70
2008,06,29,05,43,16.70
2008,06,29,05,44,16.70
2008,06,29,05,45,16.70
2008,06,29,05,46,16.70
2008,06,29,05,47,16.70
2008,06,29,05,48,16.70
2008,06,29,05,49,16.80
2008,06,29,05,50,16.80
2008,06,29,05,51,16.80
2008,06,29,05,52,16.80
2008,06,29,05,53,16.80
2008,06,29,05,54,16.90
2008,06,29,05,55,16.90
2008,06,29,05,56,16.90
2008,06,29,05,57,16.90
2008,06,29,05,58,16.90
2008,06,29,05,59,16.90
2008,06,29,06,00,16.90
2008,06,29,06,01,16.90
2008,06,29,06,02,17.00
2008,06,29,06,03,17.00
2008,06,29,06,04,17.00
2008,06,29,06,05,17.00
2008,06,29,06,06,17.00
2008,06,29,06,07,17.00
2008,06,29,06,08,17.10
2008,06,29,06,09,17.10
2008,06,29,06,10,17.10
2008,06,29,06,11,17.10
2008,06,29,06,12,17.10
2008,06,29,06,13,17.10
2008,06,29,06,14,17.10
2008,06,29,06,15,17.20
2008,06,29,06,16,17.20
2008,06,29,06,17,17.20
2008,06,29,06,18,17.20
2008,06,29,06,19,17.20
2008,06,29,06,20,17.30
2008,06,29,06,21,17.30
2008,06,29,06,22,17.40
2008,06,29,06,23,17.50
2008,06,29,06,24,17.60
2008,06,29,06,25,17.70
2008,06,29,06,26,17.70
2008,06,29,06,27,17.80
2008,06,29,06,28,17.90
2008,06,29,06,29,17.90
2008,06,29,06,30,17.90
2008,06,29,06,31,18.10
2008,06,29,06,32,18.10
2008,06,29,06,33,18.20
2008,06,29,06,34,18.20
2008,06,29,06,35,18.20
2008,06,29,06,36,18.30
2008,06,29,06,37,18.30
2008,06,29,06,38,18.20
2008,06,29,06,39,18.10
2008,06,29,06,40,18.00
2008,06,29,06,41,17.90
2008,06,29,06,42,17.90
2008,06,29,06,43,17.70
2008,06,29,06,44,17.70
2008,06,29,06,45,17.50
2008,06,29,06,46,17.50
2008,06,29,06,47,17.40
2008,06,29,06,48,17.30
2008,06,29,06,49,17.20
2008,06,29,06,50,17.20
2008,06,29,06,51,17.20
2008,06,29,06,52,17.20
2008,06,29,06,53,17.20
2008,06,29,06,54,17.20
2008,06,29,06,55,17.30
2008,06,29,06,56,17.30
2008,06,29,06,57,17.30
2008,06,29,06,58,17.30
2008,06,29,06,59,17.30
2008,06,29,07,00,17.30
2008,06,29,07,01,17.40
2008,06,29,07,02,17.50
2008,06,29,07,03,17.50
2008,06,29,07,04,17.50
2008,06,29,07,05,17.60
2008,06,29,07,06,17.70
2008,06,29,07,07,17.70
2008,06,29,07,08,17.70
2008,06,29,07,09,17.80
2008,06,29,07,10,17.80
2008,06,29,07,11,17.90
2008,06,29,07,12,17.90
2008,06,29,07,13,18.10
2008,06,29,07,14,18.20
2008,06,29,07,15,18.30
2008,06,29,07,16,18.40
2008,06,29,07,17,18.60
2008,06,29,07,18,18.70
2008,06,29,07,19,18.90
2008,06,29,07,20,18.90
2008,06,29,07,21,19.10
2008,06,29,07,22,19.10
2008,06,29,07,23,19.00
2008,06,29,07,24,18.70
2008,06,29,07,25,18.50
2008,06,29,07,26,18.20
2008,06,29,07,27,17.90
2008,06,29,07,28,17.70
2008,06,29,07,29,17.50
2008,06,29,07,30,17.40
2008,06,29,07,31,17.30
2008,06,29,07,32,17.30
2008,06,29,07,33,17.30
2008,06,29,07,34,17.20
2008,06,29,07,35,17.20
2008,06,29,07,36,17.10
2008,06,29,07,37,17.10
2008,06,29,07,38,17.10
2008,06,29,07,39,17.10
2008,06,29,07,40,17.10
2008,06,29,07,41,17.10
2008,06,29,07,42,17.10
2008,06,29,07,43,17.10
2008,06,29,07,44,17.10
2008,06,29,07,45,17.10
2008,06,29,07,46,17.20
2008,06,29,07,47,17.20
2008,06,29,07,48,17.30
2008,06,29,07,49,17.30
2008,06,29,07,50,17.40
2008,06,29,07,51,17.50
2008,06,29,07,52,17.50
2008,06,29,07,53,17.70
2008,06,29,07,54,17.80
2008,06,29,07,55,17.90
2008,06,29,07,56,18.00
2008,06,29,07,57,18.10
2008,06,29,07,58,18.10
2008,06,29,07,59,18.20
2008,06,29,08,00,18.20
2008,06,29,08,01,18.20
2008,06,29,08,02,18.20
2008,06,29,08,03,18.20
2008,06,29,08,04,18.20
2008,06,29,08,05,18.20
2008,06,29,08,06,18.20
2008,06,29,08,07,18.20
2008,06,29,08,08,18.20
2008,06,29,08,09,18.20
2008,06,29,08,10,18.20
2008,06,29,08,11,18.30
2008,06,29,08,12,18.30
2008,06,29,08,13,18.40
2008,06,29,08,14,18.50
2008,06,29,08,15,18.50
2008,06,29,08,16,18.60
2008,06,29,08,17,18.70
2008,06,29,08,18,18.80
2008,06,29,08,19,18.90
2008,06,29,08,20,19.00
2008,06,29,08,21,19.20
2008,06,29,08,22,19.40
2008,06,29,08,23,19.60
2008,06,29,08,24,19.70
2008,06,29,08,25,19.90
2008,06,29,08,26,20.10
2008,06,29,08,27,20.30
2008,06,29,08,28,20.50
2008,06,29,08,29,20.60
2008,06,29,08,30,20.80
2008,06,29,08,31,20.90
2008,06,29,08,32,20.90
2008,06,29,08,33,20.90
2008,06,29,08,34,21.00
2008,06,29,08,35,21.00
2008,06,29,08,36,21.10
2008,06,29,08,37,21.20
2008,06,29,08,38,21.20
2008,06,29,08,39,21.30
2008,06,29,08,40,21.30
2008,06,29,08,41,21.30
2008,06,29,08,42,21.30
2008,06,29,08,43,21.30
2008,06,29,08,44,21.30
2008,06,29,08,45,21.30
2008,06,29,08,46,21.20
2008,06,29,08,47,21.10
2008,06,29,08,48,21.00
2008,06,29,08,49,21.00
2008,06,29,08,50,20.90
2008,06,29,08,51,20.80
2008,06,29,08,52,20.80
2008,06,29,08,53,20.80
2008,06,29,08,54,20.80
2008,06,29,08,55,20.80
2008,06,29,08,56,20.80
2008,06,29,08,57,20.80
2008,06,29,08,58,20.80
2008,06,29,08,59,20.80
2008,06,29,09,00,20.90
2008,06,29,09,01,20.90
2008,06,29,09,02,20.90
2008,06,29,09,03,21.00
2008,06,29,09,04,21.10
2008,06,29,09,05,21.10
2008,06,29,09,06,21.20
2008,06,29,09,07,21.20
2008,06,29,09,08,21.20
2008,06,29,09,09,21.20
2008,06,29,09,10,21.10
2008,06,29,09,11,21.10
2008,06,29,09,12,21.10
2008,06,29,09,13,21.20
2008,06,29,09,14,21.20
2008,06,29,09,15,21.30
2008,06,29,09,16,21.30
2008,06,29,09,17,21.30
2008,06,29,09,18,21.30
2008,06,29,09,19,21.30
2008,06,29,09,20,21.30
2008,06,29,09,21,21.30
2008,06,29,09,22,21.30
2008,06,29,09,23,21.30
2008,06,29,09,24,21.40
2008,06,29,09,25,21.40
2008,06,29,09,26,21.50
2008,06,29,09,27,21.60
2008,06,29,09,28,21.60
2008,06,29,09,29,21.60
2008,06,29,09,30,21.60
2008,06,29,09,31,21.60
2008,06,29,09,32,21.50
2008,06,29,09,33,21.40
2008,06,29,09,34,21.40
2008,06,29,09,35,21.40
2008,06,29,09,36,21.40
2008,06,29,09,37,21.30
2008,06,29,09,38,21.30
2008,06,29,09,39,21.40
2008,06,29,09,40,21.50
2008,06,29,09,41,21.60
2008,06,29,09,42,21.60
2008,06,29,09,43,21.70
2008,06,29,09,44,21.80
2008,06,29,09,45,21.80
2008,06,29,09,46,21.80
2008,06,29,09,47,21.80
2008,06,29,09,48,21.80
2008,06,29,09,49,21.80
2008,06,29,09,50,21.90
2008,06,29,09,51,21.90
2008,06,29,09,52,21.90
2008,06,29,09,53,21.90
2008,06,29,09,54,21.90
2008,06,29,09,55,21.80
2008,06,29,09,56,21.80
2008,06,29,09,57,21.80
2008,06,29,09,58,21.80
2008,06,29,09,59,21.90
2008,06,29,10,00,21.90
2008,06,29,10,01,22.00
2008,06,29,10,02,22.00
2008,06,29,10,03,22.00
2008,06,29,10,04,22.00
2008,06,29,10,05,22.10
2008,06,29,10,06,22.10
2008,06,29,10,07,22.20
2008,06,29,10,08,22.20
2008,06,29,10,09,22.20
2008,06,29,10,10,22.20
2008,06,29,10,11,22.20
2008,06,29,10,12,22.20
2008,06,29,10,13,22.20
2008,06,29,10,14,22.10
2008,06,29,10,15,22.10
2008,06,29,10,16,22.10
2008,06,29,10,17,22.10
2008,06,29,10,18,22.20
2008,06,29,10,19,22.20
2008,06,29,10,20,22.20
2008,06,29,10,21,22.20
2008,06,29,10,22,22.20
2008,06,29,10,23,22.20
2008,06,29,10,24,22.20
2008,06,29,10,25,22.30
2008,06,29,10,26,22.30
2008,06,29,10,27,22.30
2008,06,29,10,28,22.30
2008,06,29,10,29,22.30
2008,06,29,10,30,22.20
2008,06,29,10,31,22.20
2008,06,29,10,32,22.20
2008,06,29,10,33,22.20
2008,06,29,10,34,22.20
2008,06,29,10,35,22.20
2008,06,29,10,36,22.30
2008,06,29,10,37,22.30
2008,06,29,10,38,22.40
2008,06,29,10,39,22.50
2008,06,29,10,40,22.60
2008,06,29,10,41,22.60
2008,06,29,10,42,22.70
2008,06,29,10,43,22.90
2008,06,29,10,44,22.90
2008,06,29,10,45,22.90
2008,06,29,10,46,22.90
2008,06,29,10,47,22.90
2008,06,29,10,48,23.00
2008,06,29,10,49,23.10
2008,06,29,10,50,23.10
2008,06,29,10,51,23.10
2008,06,29,10,52,23.20
2008,06,29,10,53,23.30
2008,06,29,10,54,23.30
2008,06,29,10,55,23.30
2008,06,29,10,56,23.30
2008,06,29,10,57,23.30
2008,06,29,10,58,23.30
2008,06,29,10,59,23.30
2008,06,29,11,00,23.40
2008,06,29,11,01,23.30
2008,06,29,11,02,23.30
2008,06,29,11,03,23.30
2008,06,29,11,04,23.30
2008,06,29,11,05,23.20
2008,06,29,11,06,23.20
2008,06,29,11,07,23.30
2008,06,29,11,08,23.30
2008,06,29,11,09,23.30
2008,06,29,11,10,23.30
2008,06,29,11,11,23.30
2008,06,29,11,12,23.30
2008,06,29,11,13,23.40
2008,06,29,11,14,23.40
2008,06,29,11,15,23.40
2008,06,29,11,16,23.50
2008,06,29,11,17,23.60
2008,06,29,11,18,23.60
2008,06,29,11,19,23.50
2008,06,29,11,20,23.40
2008,06,29,11,21,23.40
2008,06,29,11,22,23.30
2008,06,29,11,23,23.20
2008,06,29,11,24,23.20
2008,06,29,11,25,23.10
2008,06,29,11,26,23.10
2008,06,29,11,27,22.90
2008,06,29,11,28,22.90
2008,06,29,11,29,22.90
2008,06,29,11,30,22.90
2008,06,29,11,31,22.90
2008,06,29,11,32,22.90
2008,06,29,11,33,22.90
2008,06,29,11,34,22.90
2008,06,29,11,35,22.90
2008,06,29,11,36,23.10
2008,06,29,11,37,23.10
2008,06,29,11,38,23.20
2008,06,29,11,39,23.30
2008,06,29,11,40,23.30
2008,06,29,11,41,23.30
2008,06,29,11,42,23.30
2008,06,29,11,43,23.30
2008,06,29,11,44,23.30
2008,06,29,11,45,23.30
2008,06,29,11,46,23.30
2008,06,29,11,47,23.30
2008,06,29,11,48,23.30
2008,06,29,11,49,23.20
2008,06,29,11,50,23.20
2008,06,29,11,51,23.20
2008,06,29,11,52,23.20
2008,06,29,11,53,23.20
2008,06,29,11,54,23.20
2008,06,29,11,55,23.20
2008,06,29,11,56,23.30
2008,06,29,11,57,23.30
2008,06,29,11,58,23.30
2008,06,29,11,59,23.30
2008,06,29,12,00,23.40
2008,06,29,12,01,23.40
2008,06,29,12,02,23.40
2008,06,29,12,03,23.50
2008,06,29,12,04,23.60
2008,06,29,12,05,23.70
2008,06,29,12,06,23.70
2008,06,29,12,07,23.60
2008,06,29,12,08,23.60
2008,06,29,12,09,23.60
2008,06,29,12,10,23.60
2008,06,29,12,11,23.60
2008,06,29,12,12,23.60
2008,06,29,12,13,23.50
2008,06,29,12,14,23.40
2008,06,29,12,15,23.40
2008,06,29,12,16,23.40
2008,06,29,12,17,23.40
2008,06,29,12,18,23.40
2008,06,29,12,19,23.50
2008,06,29,12,20,23.60
2008,06,29,12,21,23.70
2008,06,29,12,22,23.70
2008,06,29,12,23,23.80
2008,06,29,12,24,23.90
2008,06,29,12,25,23.90
2008,06,29,12,26,23.90
2008,06,29,12,27,23.90
2008,06,29,12,28,23.90
2008,06,29,12,29,23.90
2008,06,29,12,30,23.90
2008,06,29,12,31,23.90
2008,06,29,12,32,23.80
2008,06,29,12,33,23.70
2008,06,29,12,34,23.70
2008,06,29,12,35,23.70
2008,06,29,12,36,23.60
2008,06,29,12,37,23.50
2008,06,29,12,38,23.40
2008,06,29,12,39,23.40
2008,06,29,12,40,23.40
2008,06,29,12,41,23.30
2008,06,29,12,42,23.30
2008,06,29,12,43,23.40
2008,06,29,12,44,23.50
2008,06,29,12,45,23.60
2008,06,29,12,46,23.70
2008,06,29,12,47,23.70
2008,06,29,12,48,23.70
2008,06,29,12,49,23.70
2008,06,29,12,50,23.70
2008,06,29,12,51,23.80
2008,06,29,12,52,23.80
2008,06,29,12,53,23.90
2008,06,29,12,54,23.90
2008,06,29,12,55,23.90
2008,06,29,12,56,23.90
2008,06,29,12,57,23.80
2008,06,29,12,58,23.80
2008,06,29,12,59,23.80
2008,06,29,13,00,23.80
2008,06,29,13,01,23.80
2008,06,29,13,02,23.90
2008,06,29,13,03,23.90
2008,06,29,13,04,23.90
2008,06,29,13,05,24.10
2008,06,29,13,06,24.10
2008,06,29,13,07,24.10
2008,06,29,13,08,24.10
2008,06,29,13,09,24.30
2008,06,29,13,10,24.30
2008,06,29,13,11,24.40
2008,06,29,13,12,24.40
2008,06,29,13,13,24.40
2008,06,29,13,14,24.50
2008,06,29,13,15,24.60
2008,06,29,13,16,24.60
2008,06,29,13,17,24.60
2008,06,29,13,18,24.70
2008,06,29,13,19,24.70
2008,06,29,13,20,24.80
2008,06,29,13,21,24.80
2008,06,29,13,22,24.70
2008,06,29,13,23,24.80
2008,06,29,13,24,24.90
2008,06,29,13,25,24.90
2008,06,29,13,26,24.90
2008,06,29,13,27,24.90
2008,06,29,13,28,25.00
2008,06,29,13,29,25.00
2008,06,29,13,30,25.00
2008,06,29,13,31,25.10
2008,06,29,13,32,25.10
2008,06,29,13,33,25.10
2008,06,29,13,34,25.10
2008,06,29,13,35,25.00
2008,06,29,13,36,25.00
2008,06,29,13,37,25.10
2008,06,29,13,38,25.10
2008,06,29,13,39,25.20
2008,06,29,13,40,25.20
2008,06,29,13,41,25.10
2008,06,29,13,42,25.20
2008,06,29,13,43,25.20
2008,06,29,13,44,25.20
2008,06,29,13,45,25.30
2008,06,29,13,46,25.30
2008,06,29,13,47,25.30
2008,06,29,13,48,25.30
2008,06,29,13,49,25.30
2008,06,29,13,50,25.30
2008,06,29,13,51,25.30
2008,06,29,13,52,25.30
2008,06,29,13,53,25.40
2008,06,29,13,54,25.40
2008,06,29,13,55,25.40
2008,06,29,13,56,25.40
2008,06,29,13,57,25.50
2008,06,29,13,58,25.50
2008,06,29,13,59,25.50
2008,06,29,14,00,25.60
2008,06,29,14,01,25.60
2008,06,29,14,02,25.70
2008,06,29,14,03,25.70
2008,06,29,14,04,25.80
2008,06,29,14,05,25.90
2008,06,29,14,06,25.90
2008,06,29,14,07,26.00
2008,06,29,14,08,26.00
2008,06,29,14,09,26.00
2008,06,29,14,10,26.10
2008,06,29,14,11,26.20
2008,06,29,14,12,26.20
2008,06,29,14,13,26.20
2008,06,29,14,14,26.10
2008,06,29,14,15,26.00
2008,06,29,14,16,26.00
2008,06,29,14,17,26.00
2008,06,29,14,18,26.00
2008,06,29,14,19,26.00
2008,06,29,14,20,26.00
2008,06,29,14,21,25.90
2008,06,29,14,22,25.90
2008,06,29,14,23,25.90
2008,06,29,14,24,25.90
2008,06,29,14,25,26.00
2008,06,29,14,26,26.00
2008,06,29,14,27,26.10
2008,06,29,14,28,26.10
2008,06,29,14,29,26.20
2008,06,29,14,30,26.30
2008,06,29,14,31,26.40
2008,06,29,14,32,26.50
2008,06,29,14,33,26.60
2008,06,29,14,34,26.60
2008,06,29,14,35,26.60
2008,06,29,14,36,26.60
2008,06,29,14,37,26.60
2008,06,29,14,38,26.70
2008,06,29,14,39,26.80
2008,06,29,14,40,26.90
2008,06,29,14,41,26.90
2008,06,29,14,42,26.90
2008,06,29,14,43,26.80
2008,06,29,14,44,26.80
2008,06,29,14,45,26.70
2008,06,29,14,46,26.70
2008,06,29,14,47,26.70
2008,06,29,14,48,26.70
2008,06,29,14,49,26.70
2008,06,29,14,50,26.80
2008,06,29,14,51,26.80
2008,06,29,14,52,26.80
2008,06,29,14,53,26.80
2008,06,29,14,54,26.90
2008,06,29,14,55,26.90
2008,06,29,14,56,26.90
2008,06,29,14,57,26.90
2008,06,29,14,58,27.10
2008,06,29,14,59,27.10
2008,06,29,15,00,27.20
2008,06,29,15,01,27.30
2008,06,29,15,02,27.30
2008,06,29,15,03,27.40
2008,06,29,15,04,27.40
2008,06,29,15,05,27.50
2008,06,29,15,06,27.60
2008,06,29,15,07,27.70
2008,06,29,15,08,27.70
2008,06,29,15,09,27.80
2008,06,29,15,10,27.90
2008,06,29,15,11,28.00
2008,06,29,15,12,28.00
2008,06,29,15,13,28.10
2008,06,29,15,14,28.10
2008,06,29,15,15,28.10
2008,06,29,15,16,28.10
2008,06,29,15,17,28.10
2008,06,29,15,18,28.00
2008,06,29,15,19,28.00
2008,06,29,15,20,28.00
2008,06,29,15,21,28.00
2008,06,29,15,22,28.00
2008,06,29,15,23,28.00
2008,06,29,15,24,27.90
2008,06,29,15,25,27.90
2008,06,29,15,26,27.90
2008,06,29,15,27,27.90
2008,06,29,15,28,27.90
2008,06,29,15,29,27.80
2008,06,29,15,30,27.80
2008,06,29,15,31,27.80
2008,06,29,15,32,27.80
2008,06,29,15,33,27.80
2008,06,29,15,34,27.70
2008,06,29,15,35,27.70
2008,06,29,15,36,27.70
2008,06,29,15,37,27.70
2008,06,29,15,38,27.80
2008,06,29,15,39,27.80
2008,06,29,15,40,27.90
2008,06,29,15,41,27.90
2008,06,29,15,42,27.90
2008,06,29,15,43,28.10
2008,06,29,15,44,28.10
2008,06,29,15,45,28.10
2008,06,29,15,46,28.20
2008,06,29,15,47,28.20
2008,06,29,15,48,28.30
2008,06,29,15,49,28.40
2008,06,29,15,50,28.50
2008,06,29,15,51,28.70
2008,06,29,15,52,28.80
2008,06,29,15,53,28.90
2008,06,29,15,54,28.90
2008,06,29,15,55,29.00
2008,06,29,15,56,29.10
2008,06,29,15,57,29.10
2008,06,29,15,58,29.10
2008,06,29,15,59,29.10
2008,06,29,16,00,29.10
2008,06,29,16,01,29.10
2008,06,29,16,02,29.10
2008,06,29,16,03,29.20
2008,06,29,16,04,29.10
2008,06,29,16,05,29.10
2008,06,29,16,06,29.10
2008,06,29,16,07,29.10
2008,06,29,16,08,29.00
2008,06,29,16,09,28.90
2008,06,29,16,10,28.90
2008,06,29,16,11,28.90
2008,06,29,16,12,28.90
2008,06,29,16,13,28.90
2008,06,29,16,14,28.90
2008,06,29,16,15,29.00
2008,06,29,16,16,29.10
2008,06,29,16,17,29.10
2008,06,29,16,18,29.10
2008,06,29,16,19,29.10
2008,06,29,16,20,29.10
2008,06,29,16,21,29.10
2008,06,29,16,22,29.10
2008,06,29,16,23,29.10
2008,06,29,16,24,29.20
2008,06,29,16,25,29.20
2008,06,29,16,26,29.30
2008,06,29,16,27,29.40
2008,06,29,16,28,29.50
2008,06,29,16,29,29.60
2008,06,29,16,30,29.60
2008,06,29,16,31,29.60
2008,06,29,16,32,29.70
2008,06,29,16,33,29.70
2008,06,29,16,34,29.70
2008,06,29,16,35,29.70
2008,06,29,16,36,29.70
2008,06,29,16,37,29.70
2008,06,29,16,38,29.80
2008,06,29,16,39,29.80
2008,06,29,16,40,29.90
2008,06,29,16,41,29.90
2008,06,29,16,42,30.00
2008,06,29,16,43,30.10
2008,06,29,16,44,30.10
2008,06,29,16,45,30.20
2008,06,29,16,46,30.20
2008,06,29,16,47,30.30
2008,06,29,16,48,30.30
2008,06,29,16,49,30.30
2008,06,29,16,50,30.30
2008,06,29,16,51,30.30
2008,06,29,16,52,30.20
2008,06,29,16,53,30.10
2008,06,29,16,54,30.00
2008,06,29,16,55,29.80
2008,06,29,16,56,29.70
2008,06,29,16,57,29.50
2008,06,29,16,58,29.40
2008,06,29,16,59,29.30
2008,06,29,17,00,29.20
2008,06,29,17,01,29.10
2008,06,29,17,02,29.10
2008,06,29,17,03,28.90
2008,06,29,17,04,28.90
2008,06,29,17,05,28.90
2008,06,29,17,06,28.90
2008,06,29,17,07,28.80
2008,06,29,17,08,28.80
2008,06,29,17,09,28.80
2008,06,29,17,10,28.80
2008,06,29,17,11,28.80
2008,06,29,17,12,28.80
2008,06,29,17,13,28.80
2008,06,29,17,14,28.80
2008,06,29,17,15,28.80
2008,06,29,17,16,28.90
2008,06,29,17,17,28.90
2008,06,29,17,18,28.90
2008,06,29,17,19,28.90